Location: Emblem
(62.4273°N, 6.4710°E)
Time: 02:14:38
(UTC+02:00)

UWE-3 - Pass Details

Date: 24 March 2023
Orbit: 577 x 669 km, 97.7° (Epoch: 06 June)

Event Time Altitude Azimuth Distance (km) Brightness Sun altitude
Rises 03:09:25 0° 18° (NNE) 3,038 ? -20.4°
Reaches altitude 10° 03:11:49 10° 27° (NNE) 2,114 ? -20.2°
Maximum altitude 03:16:09 39° 96° (E) 1,008 ? -19.9°
Enters shadow 03:19:16 17° 158° (SSE) 1,662 ? -19.7°
